Powrót do katalogu

STARLINK-34854

AktywnyŁącznośćVLEO
NORAD 65337·PAYLOAD·🇺🇸 United States

Wystrzelony Aug 27, 2025 z Cape Canaveral Space Force Station

Loading…

Następne Przeloty (najbliższe 24 godziny)

TLE

ŚwieżeSource: CelesTrak SupGP

Epoka: Sep 14, 2026, 22:32 UTC

1 65337C 25189Q   26257.93937500  .00022753  00000+0  73181-3 0  2575
2 65337  53.1588  46.4368 0001097  80.8775 131.6568 15.31685263    10

Śledź STARLINK-34854 w czasie rzeczywistym z AllMySat

Download on the App Store